Regional Weather Roundup
Issued by NWS

Home | Current Version | Previous Version | Graphics & Text | Print | Product List | Glossary On
Versions: 1 2 3 4 5 6 7 8 9 10 11 12 13 14 15 16 17 18 19 20 21 22 23 24 25 26 27 28 29 30 31 32 33 34 35 36 37 38 39 40 41 42 43 44 45 46 47 48 49 50
000
ASUS43 KDTX 250901
RWRMI
MICHIGAN HOURLY REGIONAL WEATHER ROUNDUP
NATIONAL WEATHER SERVICE DETROIT/PONTIAC MI
500 AM EDT WED MAY 25 2016

NOTE: "FAIR" INDICATES FEW OR NO CLOUDS BELOW 12,000 FEET WITH NO
SIGNIFICANT WEATHER AND/OR OBSTRUCTION TO VISIBILITY.

MIZ047>049-052>055-059>063-066>070-074>076-081>083-251000-
SOUTHEAST LOWER MICHIGAN

CITY           SKY/WX    TMP DP  RH WIND       PRES   REMARKS
ADRIAN         PTCLDY    62  46  55 SW5       30.06R
ALMA           PTCLDY    60  54  81 SW6       30.01S
ANN ARBOR      PTCLDY    55  50  83 W3        30.04R
BAD AXE        MOCLDY    58  53  81 CALM      30.01R
CARO           PTCLDY    56  53  90 SW3       29.99S
DETROIT CITY   CLOUDY    68  44  42 SW7       30.03R
DETROIT        CLOUDY    63  47  55 SW6       30.05R
FLINT          PTCLDY    62  51  67 CALM      30.02R
GROSSE ILE     CLOUDY    64  48  55 S3        30.03R
HILLSDALE      PTCLDY    64  46  51 SW5       30.06S
HOWELL         PTCLDY    65  49  55 SW6       30.03S

CITY           SKY/WX    TMP DP  RH WIND       PRES   REMARKS
JACKSON        PTCLDY    66  50  56 SW7       30.04S
LAMBERTVILLE   CLOUDY    65  48  55 SW3       30.06R
LANSING        CLOUDY    66  52  60 SW10      30.03R
LAPEER         FAIR      55  52  88 CALM      30.03R
MASON          CLOUDY    66  51  58 CALM      30.03S
MONROE         PTCLDY    63  48  59 SW5       30.04S
PONTIAC        CLOUDY    65  48  54 W5        30.03R
PORT HOPE        N/A     60  55  83 SE5       29.98S
PORT HURON     CLOUDY    59  54  82 CALM      30.02S
TRI CITIES     CLEAR     67  53  61 SW7       29.99S
MIDLAND        FAIR      59  58  95 CALM      29.99R
TROY           MOCLDY    67  47  49 SW6       30.05R
SAGINAW HB     PTCLDY    64  52  63 S9        29.99S
$$
MIZ043>046-050>051-056>058-064>065-071>073-077>080-251000-
SOUTHWEST LOWER MICHIGAN

CITY           SKY/WX    TMP DP  RH WIND       PRES   REMARKS
BATTLE CREEK   CLOUDY    63  52  67 SW6       30.04S
BENTON HARBOR  MOCLDY    69  56  62 S5        30.01S
BIG RAPIDS     CLEAR     58  57  96 CALM      30.00R FOG
COLDWATER      CLOUDY    65  52  63 SW3       30.05R
FREMONT        FAIR      61  56  83 CALM      29.99R
HOLLAND        PTCLDY    71  56  58 SW13      30.01S
GRAND RAPIDS   MOCLDY    67  54  63 S8        30.01S
IONIA          FAIR      67  51  57 SW8       30.01S
KALAMAZOO      CLOUDY    64  53  67 S5        30.04R
LUDINGTON      CLEAR     54  54 100 CALM      29.99S
MARSHALL       CLOUDY    65  52  61 SW3       30.04S
MOUNT PLEASANT CLEAR     59  57  96 CALM      29.99R FOG
MUSKEGON       CLEAR     66  53  63 SW8       29.99S
SOUTH HAVEN    CLOUDY    70  56  61 SW6       30.01S
$$
MIZ016>042-251000-
NORTHERN LOWER MICHIGAN

CITY           SKY/WX    TMP DP  RH WIND       PRES   REMARKS
ALPENA         CLEAR     54  51  90 CALM      29.99S
BEAVER ISLAND  FOG       54  54  99 CALM      30.00R VSB 1/4
BELLAIRE       CLOUDY    53  52  97 CALM      29.99S FOG
CADILLAC       CLEAR     55  50  86 CALM      30.00R
CHARLEVOIX     CLOUDY    52  52 100 CALM      30.02S FOG
FRANKFORT      CLEAR     54  51  91 CALM      29.98R
GAYLORD        FOG       54  53  97 CALM      30.00S VSB 1
GRAYLING       CLEAR     49  48  93 CALM      30.01R
HARBOR SPRINGS FOG       52  52  99 CALM      30.00R VSB 1/4
HOUGHTON LAKE  CLEAR     53  51  93 CALM      30.00R
MANISTEE       CLEAR     54  48  82 MISG      30.00R
OSCODA         MOCLDY    58  50  73 CALM      29.98S
PELLSTON       CLOUDY    54  53  97 CALM      30.00R FOG
ROGERS CITY    PTCLDY    55  53  92 CALM      30.01R FOG
TRAVERSE CITY  PTCLDY    54  51  90 CALM      29.98S
$$
MIZ007>008-015-251000-
EASTERN UPPER MICHIGAN

CITY           SKY/WX    TMP DP  RH WIND       PRES   REMARKS
KINROSS          N/A     54  52  94 CALM      29.99S VSB 1/2
MACKINAC ISLAN FOG       56  56 100 N3        29.99S VSB 3/4
NEWBERRY       FOG       51  51  97 CALM      30.01R VSB 1/2
S. S. MARIE    CLOUDY    54  53  97 CALM      29.99R FOG
MUNISING         N/A     46  45  96 NE5       30.03R
$$
MIZ004>006-011>014-085-251000-
CENTRAL UPPER MICHIGAN

CITY           SKY/WX    TMP DP  RH WIND       PRES   REMARKS
MANISTIQUE     FOG       53  52  97 N3        30.01R VSB 3/4
ESCANABA       CLOUDY    52  50  93 N3        30.02S
MENOMINEE      CLOUDY    55  55 100 E3        30.02R
SAWYER-GWINN   FOG       46  46  97 N5        30.05R VSB 1/4
$$
MIZ001>003-009>011-084-251000-
WESTERN UPPER MICHIGAN

CITY           SKY/WX    TMP DP  RH WIND       PRES   REMARKS
IRON MOUNTAIN  CLOUDY    55  52  89 N3        30.02R
HOUGHTON       CLOUDY    49  47  93 E6        30.05R
COPPER HARBOR    N/A     47  46  97 VRB6      30.07R
IRONWOOD       CLOUDY    54  52  94 CALM      30.00S VSB 1/2
$$

ABBREVIATIONS USED IN REMARKS
   TC - TEMPERATURE IN CELSIUS
  WCI - WIND CHILL INDEX
   HX - HEAT INDEX
  VSB - VISIBILITY





USA.gov is the U.S. government's official web portal to all federal, state and local government web resources and services.